Wetbulb
48.13 41.98 38.86 42.45 43.58 44.77 43.89 41.35 39.95 41.87 45.08 44.52 44.74 42.24 44.02 51.67 53.70 52.09 51.58 51.13 50.89 54.33 56.93 57.23 57.31 57.71 57.72 59.45 59.35 58.60 57.17 56.30 56.10 54.78 52.90 52.18 51.59 51.94 50.76 50.53 51.31 51.78 51.62 50.53
43.91 39.43 46.26 47.50 47.37 45.70 43.67 41.10 40.48 42.86 45.27 43.83 41.13 41.27 43.15 50.21 52.27 53.19 52.77 51.30 51.14 51.97 54.39 55.88 56.45 56.70 58.64 58.46 58.60 58.01 57.23 56.38 55.96 55.52 53.78 53.36 51.40 50.79 49.69 49.94 50.51 51.43 49.29 48.50
41.09 43.91 48.07 47.17 44.54 43.50 42.01 41.02 41.02 41.35 42.97 41.30 39.04 36.86 40.40 45.76 49.45 52.17 53.20 53.41 52.44 51.28 53.25 54.17 56.33 57.77 58.36 57.82 57.81 57.41 57.02 56.80 56.63 55.73 54.12 51.40 50.27 49.29 48.11 48.16 48.73 50.52 49.45 49.06
43.85 47.40 46.44 45.07 43.79 44.42 39.66 45.58 44.77 43.30 38.77 33.64 39.40 30.11 38.27 42.48 45.17 49.12 50.57 49.81 50.20 50.74 53.99 54.71 56.89 57.74 58.11 58.04 58.39 57.64 56.95 57.07 57.26 56.39 53.97 51.17 49.27 48.49 48.84 48.62 49.20 49.17 49.00 48.48
42.15 43.44 43.63 43.05 44.27 46.68 41.84 44.97 44.85 44.11 39.55 37.43 38.03 33.98 37.08 40.60 41.21 46.46 49.21 49.31 49.65 51.44 53.33 54.65 57.45 58.26 58.87 58.78 58.11 58.06 57.55 57.14 57.58 57.30 55.19 52.43 49.39 49.29 49.23 49.20 49.03 47.89 47.82 47.69
43.38 47.03 45.97 45.31 48.24 47.63 47.27 43.57 43.33 41.80 39.32 32.01 38.01 35.66 34.97 39.03 42.52 45.25 49.05 49.73 49.79 50.03 52.82 54.15 58.17 58.93 58.71 59.04 58.46 58.31 58.00 57.97 58.22 57.68 55.48 53.15 50.41 49.45 49.06 48.82 47.49 47.07 46.65 45.35
42.03 43.03 46.79 49.07 44.75 46.01 44.29 38.78 30.58 28.31 28.70 29.19 40.30 36.19 37.56 43.62 45.58 46.92 47.41 46.84 49.16 51.36 52.76 53.50 57.13 58.20 58.21 58.22 58.43 58.45 58.21 57.94 58.01 56.88 55.15 52.91 50.92 49.91 49.96 49.71 48.37 44.99 43.75 43.93
36.26 34.35 44.89 48.40 44.22 41.82 42.90 39.56 31.04 26.84 27.22 30.44 39.91 34.19 39.56 45.50 46.98 47.83 48.69 46.86 49.58 50.67 53.50 54.84 57.32 58.34 58.36 58.63 58.61 58.80 58.55 57.69 56.10 54.52 52.37 50.53 49.32 48.86 48.22 47.85 47.20 45.57 44.31 43.27
36.51 38.14 46.10 47.46 47.83 46.17 42.25 38.38 42.85 35.10 32.86 28.63 35.03 37.45 43.72 45.96 46.21 47.50 45.95 47.95 47.96 50.27 53.26 55.37 56.63 57.48 58.24 58.47 58.52 58.54 58.56 56.73 54.30 53.31 51.47 47.97 46.70 46.70 45.48 45.82 45.90 45.03 43.95 43.16
41.50 36.31 44.58 47.57 48.37 46.72 43.26 44.64 36.47 36.13 27.74 26.46 31.30 32.74 36.11 41.76 44.40 46.42 46.00 46.85 49.97 51.33 53.28 54.86 55.62 55.71 57.26 56.71 55.28 53.59 54.93 53.63 53.36 51.29 49.92 48.37 48.48 47.71 46.72 46.11 44.98 43.97 43.42 42.16
43.17 39.62 39.01 44.14 43.07 41.23 40.47 38.63 39.29 37.94 33.70 28.30 25.13 30.57 39.28 43.16 45.56 46.10 46.77 48.91 50.46 50.61 51.85 53.55 53.84 54.76 55.06 54.46 52.22 51.31 52.05 52.94 51.02 49.01 48.49 47.36 46.35 47.66 47.79 45.91 44.63 42.78 43.00 42.71
44.30 40.57 34.71 39.25 45.91 46.75 43.58 40.15 40.72 30.31 31.24 31.73 27.70 30.68 42.02 44.17 45.46 46.87 47.44 50.09 50.71 52.02 51.48 52.98 53.44 53.63 53.13 53.30 52.57 51.60 50.43 49.66 48.37 47.29 46.49 46.26 47.07 48.00 46.25 44.71 44.05 44.03 42.75 41.69
44.37 38.49 32.08 36.27 41.47 44.23 41.08 42.15 41.78 40.00 35.07 31.48 25.99 30.86 42.48 42.39 42.97 45.52 46.58 48.49 51.03 51.66 50.97 51.48 52.43 53.08 53.31 53.37 53.15 51.08 50.37 49.47 48.18 47.29 46.75 47.31 47.78 46.53 45.54 43.84 43.48 43.24 40.82 39.57
46.35 40.16 36.30 31.18 35.86 39.24 37.19 41.16 40.93 38.31 29.06 31.29 31.87 35.96 41.07 42.83 42.03 42.58 44.09 45.44 49.58 51.31 51.65 50.77 50.88 52.54 53.24 53.14 53.49 52.24 50.43 49.34 48.01 46.94 46.78 47.11 47.09 45.73 43.72 43.33 40.30 39.49 38.84 38.00
43.72 37.46 38.87 39.57 41.00 41.25 40.02 39.71 39.62 37.87 37.99 32.77 36.29 36.92 40.93 41.32 41.23 40.87 42.65 43.94 46.16 48.88 49.91 50.01 49.33 49.39 49.86 51.11 50.62 49.23 47.96 47.33 47.40 47.00 46.65 46.65 46.39 43.72 42.63 41.06 39.81 39.05 39.35 38.33
44.02 36.70 37.52 36.39 40.44 39.84 37.09 38.16 37.86 38.85 38.91 38.42 38.03 36.57 40.25 41.39 42.12 42.37 42.86 44.15 44.34 45.46 47.45 48.66 49.78 50.26 50.71 50.60 48.56 47.77 46.76 46.72 47.12 46.51 45.52 44.78 42.68 42.25 41.42 40.34 39.09 39.73 38.97 38.23
40.93 37.91 32.38 30.86 34.66 35.03 29.39 36.38 38.07 38.47 38.60 39.30 33.68 38.01 40.08 40.64 41.38 41.15 42.21 43.61 43.98 44.88 47.00 49.22 49.49 50.18 50.22 49.44 48.07 46.19 45.91 46.29 43.25 43.12 42.46 42.60 42.03 40.77 40.22 39.61 38.94 37.86 37.75 37.41
39.34 37.10 31.61 27.84 28.20 21.90 37.44 42.06 41.06 38.13 38.35 38.68 39.09 39.14 40.88 41.63 41.76 42.52 42.83 42.58 43.52 44.74 45.76 46.78 47.44 46.99 45.41 45.20 44.42 43.61 42.90 41.71 41.16 39.47 39.55 40.42 39.73 38.76 38.94 38.69 38.22 37.69 37.77 36.74
44.40 36.13 30.55 26.37 26.77 33.12 37.73 39.27 38.08 36.49 35.39 39.91 39.28 40.56 40.94 42.57 42.65 42.45 44.86 44.09 43.07 43.82 41.81 40.91 41.33 41.19 41.67 41.77 41.89 40.30 39.45 38.89 38.42 38.02 38.30 38.16 38.28 38.02 38.18 38.05 37.38 36.90 35.47 35.46
41.41 38.60 32.90 28.16 24.43 21.97 34.78 39.81 42.66 41.63 30.54 41.52 41.53 41.46 41.92 40.93 34.53 38.75 43.09 40.86 38.40 38.37 38.48 37.84 38.30 38.20 37.80 37.91 38.17 37.39 37.20 37.57 36.60 36.95 37.44 38.26 38.94 38.96 37.88 36.83 35.62 35.46 34.89 33.91
31.05 30.99 27.78 23.22 23.39 29.15 39.24 42.37 42.91 30.06 31.32 41.80 42.32 41.86 41.25 40.07 40.76 42.19 39.61 37.93 37.88 37.28 36.74 37.05 36.53 35.92 36.73 38.06 38.29 36.73 36.84 35.91 38.48 39.65 39.87 40.03 39.13 36.84 35.68 34.35 33.97 33.21 32.61 31.74
32.73 29.59 25.41 28.17 23.50 25.72 43.37 41.39 35.97 37.89 41.44 42.23 42.27 42.03 42.44 42.91 41.40 39.82 37.91 36.89 36.33 35.39 35.57 36.13 35.50 36.39 37.41 37.84 37.46 36.40 36.23 38.15 39.07 39.04 37.74 36.70 35.47 35.31 35.16 33.00 32.43 31.94 30.71 29.37
33.54 35.55 32.32 34.15 32.70 41.11 42.89 42.29 43.30 43.79 42.78 42.70 43.26 44.25 44.15 39.61 37.37 37.05 35.65 35.82 35.82 35.40 35.11 36.06 35.57 35.76 36.73 37.04 36.29 34.34 35.62 36.81 36.88 35.94 34.30 33.82 33.82 33.98 33.64 31.27 30.20 29.37 29.19 26.82
39.98 43.79 38.05 36.91 40.59 41.98 43.33 44.42 44.42 43.41 40.31 40.26 41.31 41.71 41.24 37.37 37.02 35.80 35.67 35.40 35.19 36.44 36.53 36.89 36.09 34.94 34.85 35.91 35.80 35.23 35.27 35.07 33.57 32.19 31.96 32.00 31.52 31.51 31.26 31.15 30.70 29.38 25.14 23.31
40.04 41.09 38.25 38.19 40.62 41.75 41.65 41.60 40.87 39.73 39.88 38.89 38.86 38.72 37.83 36.84 35.75 35.55 34.96 35.95 35.87 35.28 35.02 35.44 34.71 34.61 34.39 34.64 33.89 33.90 33.88 33.71 32.19 31.45 31.47 30.88 30.40 30.24 29.95 30.79 30.87 29.58 28.70 28.07
40.96 39.03 34.46 33.36 41.94 39.31 38.40 39.60 41.01 39.12 38.44 38.37 36.90 35.87 36.57 36.40 35.08 34.95 33.77 34.86 34.57 34.22 34.87 34.53 34.09 33.34 33.08 32.27 32.20 32.63 33.04 32.22 30.83 30.12 29.91 28.88 28.04 27.92 28.85 29.30 30.07 32.10 31.47 31.49
MSLP
1010.85 1011.57 1011.85 1011.86 1011.71 1011.01 1010.41 1010.21 1009.98 1009.48 1009.73 1009.79 1009.82 1010.44 1010.84 1011.18 1011.96 1012.34 1012.82 1013.22 1013.63 1013.76 1013.98 1014.55 1015.13 1015.83 1016.54 1017.14 1017.74 1018.14 1018.89 1019.60 1020.10 1020.88 1021.36 1021.77 1022.09 1022.34 1022.27 1022.38 1022.54 1022.91 1023.18 1023.41
1011.71 1011.49 1011.19 1011.19 1010.91 1010.91 1010.67 1010.52 1010.33 1009.51 1009.17 1009.79 1010.12 1010.48 1010.26 1010.56 1010.91 1011.33 1011.74 1012.41 1012.82 1013.72 1014.22 1014.81 1015.42 1016.02 1016.65 1017.08 1017.74 1018.18 1018.66 1019.35 1019.75 1020.08 1020.45 1020.92 1021.61 1022.19 1022.26 1022.58 1022.81 1022.99 1023.26 1023.29
1011.50 1010.96 1010.63 1010.93 1010.66 1010.85 1010.43 1010.43 1010.12 1009.94 1009.62 1009.58 1010.10 1010.78 1010.57 1010.56 1010.62 1010.86 1011.00 1010.97 1011.79 1012.32 1013.28 1014.32 1015.01 1015.70 1016.49 1017.11 1017.33 1017.76 1018.24 1018.79 1019.42 1019.73 1020.28 1021.00 1021.68 1022.31 1022.75 1022.84 1023.02 1023.05 1023.06 1023.04
1011.08 1010.21 1010.32 1010.55 1010.82 1010.76 1010.29 1009.75 1010.14 1010.34 1010.45 1011.01 1010.82 1011.31 1010.52 1010.16 1010.15 1010.31 1010.53 1011.02 1011.35 1011.91 1012.61 1013.35 1014.17 1015.20 1015.78 1016.46 1017.15 1017.61 1018.14 1018.53 1019.06 1019.61 1020.22 1020.76 1021.20 1021.92 1022.10 1022.26 1022.51 1022.67 1022.74 1022.82
1010.62 1010.49 1010.65 1010.49 1010.13 1010.18 1010.23 1010.03 1010.56 1010.45 1011.13 1011.69 1011.61 1011.95 1010.43 1009.80 1009.95 1009.97 1009.82 1010.34 1010.59 1011.08 1011.67 1012.69 1013.32 1013.76 1014.83 1015.94 1016.59 1017.15 1017.76 1018.44 1018.93 1019.45 1019.92 1020.45 1020.93 1021.13 1021.34 1021.94 1022.35 1022.61 1022.54 1022.67
1010.16 1010.25 1010.13 1009.89 1009.79 1010.05 1010.11 1010.78 1011.18 1011.66 1012.50 1012.93 1011.78 1011.91 1010.74 1010.00 1008.85 1008.53 1009.08 1009.61 1010.65 1011.41 1011.93 1012.64 1013.45 1014.18 1015.13 1016.06 1016.59 1016.94 1017.43 1017.88 1018.50 1019.13 1019.57 1019.90 1020.24 1020.81 1021.40 1021.97 1022.47 1022.81 1023.22 1023.49
1010.46 1010.41 1010.07 1009.75 1009.66 1009.50 1010.24 1011.11 1012.63 1013.80 1014.20 1013.51 1012.26 1012.04 1010.05 1008.60 1007.91 1007.92 1008.42 1009.62 1010.00 1010.74 1011.83 1012.55 1013.32 1014.09 1014.89 1015.52 1016.01 1016.41 1016.95 1017.28 1017.80 1018.46 1018.94 1019.22 1019.58 1020.14 1020.82 1021.45 1022.10 1022.84 1023.36 1023.85
1010.79 1010.88 1010.09 1010.07 1010.76 1010.93 1010.94 1011.26 1012.69 1013.95 1014.67 1013.96 1012.32 1011.23 1009.41 1008.08 1007.61 1007.75 1008.07 1009.12 1009.71 1010.50 1011.29 1011.97 1012.62 1013.49 1014.01 1014.68 1015.56 1016.18 1016.45 1016.86 1017.20 1017.93 1018.45 1018.85 1019.36 1020.07 1020.62 1021.08 1021.79 1022.56 1023.04 1023.76
1010.89 1010.86 1010.33 1010.39 1010.41 1010.94 1010.84 1011.34 1011.78 1013.49 1014.74 1014.46 1012.87 1010.67 1009.32 1008.40 1007.78 1007.92 1008.28 1009.13 1009.98 1010.41 1010.89 1011.70 1012.34 1013.03 1013.69 1014.40 1015.02 1015.63 1016.30 1016.46 1016.72 1017.33 1018.02 1018.79 1019.50 1019.87 1020.52 1021.30 1021.85 1022.28 1023.28 1023.66
1010.14 1011.13 1011.03 1010.48 1009.85 1009.86 1010.14 1010.62 1011.87 1013.12 1014.56 1014.57 1013.24 1011.79 1010.28 1009.37 1008.79 1008.85 1009.11 1009.47 1010.08 1010.55 1011.13 1011.73 1012.38 1012.95 1013.59 1014.03 1014.70 1015.28 1015.61 1015.99 1016.55 1017.30 1017.90 1018.82 1019.65 1020.13 1020.62 1021.33 1022.20 1022.73 1022.90 1024.11
1009.85 1010.73 1011.58 1011.35 1010.31 1009.75 1010.19 1010.58 1011.39 1012.69 1013.90 1014.21 1013.85 1012.17 1009.93 1009.39 1009.06 1009.05 1009.22 1009.42 1009.87 1010.58 1011.08 1011.63 1012.15 1012.58 1013.04 1013.69 1014.26 1014.66 1015.08 1015.74 1016.54 1017.54 1018.43 1019.09 1019.98 1020.71 1021.19 1021.72 1022.32 1022.27 1023.38 1023.02
1009.38 1010.68 1011.49 1010.60 1009.72 1009.65 1010.25 1010.74 1011.62 1012.66 1013.91 1014.21 1013.63 1011.78 1009.60 1009.12 1008.87 1008.98 1009.22 1009.56 1009.77 1009.99 1010.51 1010.88 1011.37 1011.97 1012.65 1013.22 1013.80 1014.16 1014.73 1015.58 1016.39 1017.30 1018.28 1019.15 1019.63 1020.39 1021.16 1021.76 1022.32 1022.44 1022.68 1022.93
1009.00 1010.27 1011.19 1010.80 1009.95 1009.39 1009.85 1009.90 1010.54 1011.32 1012.66 1013.46 1013.52 1011.62 1009.58 1009.09 1009.17 1008.96 1009.02 1009.21 1009.41 1009.53 1009.95 1010.46 1011.07 1011.47 1011.92 1012.43 1012.92 1013.76 1014.35 1015.03 1015.94 1016.94 1017.63 1018.56 1019.54 1020.41 1020.64 1021.32 1021.90 1021.91 1022.59 1023.29
1007.64 1009.42 1010.26 1010.53 1009.99 1009.58 1009.71 1009.39 1009.64 1010.80 1012.40 1012.65 1012.23 1011.09 1009.94 1009.11 1008.88 1008.71 1008.72 1008.82 1009.03 1009.40 1009.66 1010.09 1010.74 1011.11 1011.62 1012.35 1013.01 1013.69 1014.59 1015.34 1016.16 1017.12 1018.01 1018.50 1019.13 1019.61 1020.47 1021.11 1021.47 1022.07 1022.57 1023.14
1008.02 1009.39 1009.84 1010.16 1009.89 1009.65 1009.43 1009.37 1009.56 1010.10 1010.88 1011.69 1011.18 1010.88 1009.61 1009.24 1009.09 1008.52 1008.62 1009.03 1009.19 1009.64 1009.94 1010.17 1010.73 1011.40 1012.00 1012.73 1013.33 1014.08 1014.85 1015.74 1016.52 1017.39 1018.16 1018.53 1018.92 1019.69 1020.34 1020.83 1021.68 1022.28 1022.67 1023.12
1008.34 1009.63 1010.36 1010.86 1010.61 1010.11 1009.85 1009.48 1009.49 1009.73 1009.94 1010.24 1010.45 1010.67 1010.24 1009.67 1009.57 1009.46 1009.60 1009.71 1010.10 1010.09 1010.06 1010.18 1010.81 1011.72 1012.19 1012.77 1013.48 1014.34 1015.15 1016.09 1016.73 1017.38 1018.14 1018.89 1019.75 1020.29 1020.63 1021.14 1021.76 1022.23 1022.81 1022.96
1009.24 1010.51 1011.84 1012.47 1011.90 1011.11 1010.69 1009.54 1009.36 1009.40 1009.68 1009.87 1010.53 1010.79 1010.72 1010.58 1010.76 1010.98 1010.92 1010.82 1011.08 1011.14 1011.04 1011.11 1011.43 1011.84 1012.42 1013.12 1013.86 1014.98 1015.83 1016.54 1017.39 1018.30 1019.05 1019.61 1020.03 1020.46 1020.69 1021.33 1021.77 1022.15 1022.37 1022.67
1009.78 1011.52 1012.78 1013.98 1013.54 1012.20 1010.15 1009.00 1008.80 1009.57 1010.12 1009.97 1010.52 1011.15 1011.29 1011.56 1012.06 1012.10 1012.17 1012.09 1012.30 1012.24 1012.22 1012.26 1012.22 1012.78 1013.44 1014.01 1014.86 1015.69 1016.59 1017.42 1018.26 1018.90 1019.48 1020.04 1020.62 1021.16 1021.46 1021.88 1022.05 1022.25 1022.19 1022.11
1009.55 1011.89 1014.09 1014.75 1014.39 1012.70 1010.45 1009.50 1009.28 1009.45 1011.20 1011.08 1011.26 1011.66 1011.90 1012.17 1012.36 1013.18 1013.23 1013.18 1013.41 1013.54 1013.78 1013.87 1013.97 1014.17 1014.46 1015.06 1015.76 1016.53 1017.61 1018.38 1019.10 1019.87 1020.30 1020.64 1021.08 1021.52 1021.63 1021.90 1022.14 1022.09 1022.21 1022.28
1010.72 1011.83 1013.90 1015.52 1014.96 1013.17 1010.59 1009.26 1008.90 1009.42 1011.28 1011.48 1011.55 1011.90 1012.07 1012.45 1013.54 1014.41 1014.49 1014.52 1014.85 1015.06 1015.23 1015.29 1015.57 1015.70 1015.95 1016.77 1017.02 1017.61 1018.73 1019.24 1019.94 1020.69 1021.15 1021.33 1021.19 1021.31 1021.61 1021.87 1022.17 1022.16 1021.94 1021.95
1012.50 1013.72 1014.67 1015.32 1014.52 1012.52 1010.20 1009.44 1009.48 1010.44 1011.69 1011.57 1011.76 1012.22 1012.58 1013.31 1013.88 1014.78 1015.50 1015.85 1016.21 1016.43 1016.62 1016.77 1016.79 1017.08 1017.80 1018.11 1018.28 1019.03 1019.80 1020.30 1020.80 1020.94 1021.03 1021.23 1021.52 1021.60 1021.77 1021.90 1021.90 1021.87 1021.84 1021.78
1011.61 1013.29 1014.44 1014.58 1013.98 1012.15 1009.70 1009.82 1010.18 1010.78 1011.46 1011.82 1012.15 1012.66 1013.35 1013.93 1014.74 1015.63 1016.48 1016.99 1017.46 1017.66 1018.05 1018.17 1018.16 1018.60 1019.04 1019.26 1019.42 1020.14 1020.44 1020.65 1020.80 1021.09 1021.40 1021.54 1021.67 1021.62 1021.70 1021.74 1021.67 1021.66 1021.70 1021.77
1010.45 1010.59 1011.80 1012.40 1012.02 1010.91 1010.02 1009.94 1010.49 1010.91 1011.68 1012.51 1012.73 1013.29 1013.66 1014.73 1015.89 1016.82 1017.65 1018.21 1018.68 1018.93 1019.14 1019.33 1019.30 1019.64 1020.04 1020.25 1020.31 1020.78 1021.15 1021.14 1021.19 1021.46 1021.69 1021.66 1021.49 1021.44 1021.40 1021.47 1021.55 1021.56 1021.47 1021.40
1009.23 1009.39 1010.25 1011.41 1012.31 1011.76 1011.28 1011.41 1011.65 1012.07 1012.79 1013.50 1013.70 1013.95 1014.45 1015.69 1016.98 1017.81 1018.57 1019.22 1019.55 1019.75 1019.94 1020.14 1020.33 1020.65 1020.87 1021.06 1021.19 1021.33 1021.40 1021.46 1021.57 1021.65 1021.61 1021.49 1021.53 1021.44 1021.30 1021.25 1021.17 1021.18 1021.01 1020.83
1008.35 1008.81 1010.01 1012.01 1012.75 1012.58 1012.75 1012.88 1013.11 1013.79 1014.33 1014.70 1015.16 1015.53 1016.05 1016.63 1017.98 1018.58 1019.25 1019.65 1020.12 1020.49 1020.64 1020.80 1020.99 1021.22 1021.46 1021.53 1021.56 1021.49 1021.43 1021.43 1021.56 1021.61 1021.61 1021.57 1021.52 1021.43 1021.25 1020.93 1020.76 1020.64 1020.25 1020.05
1007.93 1008.19 1009.46 1010.84 1011.12 1011.95 1013.40 1014.00 1014.20 1014.61 1015.40 1015.87 1016.05 1017.01 1017.66 1017.98 1018.71 1019.41 1020.11 1020.55 1020.78 1021.09 1021.24 1021.38 1021.59 1021.75 1021.89 1021.88 1021.87 1021.80 1021.76 1021.72 1021.81 1021.77 1021.61 1021.45 1021.30 1021.08 1020.88 1020.61 1020.09 1019.74 1019.38 1018.99
Wind_Speed
0 5 3 7 8 7 9 1 4 7 7 5 11 6 6 15 13 13 12 10 11 17 18 19 19 18 15 12 13 15 15 11 10 6 4 3 4 2 2 3 5 5 5 6
4 3 5 7 4 3 3 2 9 10 8 9 6 9 6 16 16 17 15 13 17 14 16 16 17 16 15 16 13 12 13 12 8 6 3 4 4 2 2 3 4 5 6 6
6 6 4 1 5 7 4 3 5 6 4 4 6 4 4 5 5 12 14 18 16 20 21 18 19 17 14 15 15 14 14 13 8 7 4 4 4 4 2 2 3 4 6 6
4 2 2 5 2 2 7 7 7 1 4 1 3 4 4 7 8 12 15 13 14 14 17 18 20 18 18 16 12 12 12 11 8 8 6 8 5 7 4 5 4 5 7 7
10 3 3 3 6 4 10 3 6 1 3 4 1 3 8 4 7 10 16 16 16 18 20 19 22 22 19 16 15 13 12 10 9 10 9 8 5 4 3 3 6 5 6 5
5 3 4 4 1 3 9 2 8 7 5 2 6 6 6 5 11 12 13 12 10 9 12 11 12 15 14 13 13 12 14 13 9 9 11 11 10 8 5 5 5 3 4 4
2 3 2 0 9 8 2 5 3 4 4 7 3 3 10 7 8 8 14 9 9 13 11 10 16 16 15 17 15 12 14 14 13 12 12 10 10 8 10 9 6 6 4 2
5 1 1 2 3 4 5 4 7 5 4 5 6 4 7 7 3 2 6 6 7 11 13 15 16 15 17 16 14 13 14 12 11 10 9 7 8 6 5 5 7 6 5 5
5 4 3 4 5 3 1 3 5 6 2 3 5 4 6 5 4 6 2 8 7 8 12 13 13 13 14 14 15 15 13 10 10 10 9 8 7 8 7 7 8 7 7 7
7 3 1 4 2 2 7 4 2 3 2 3 4 4 5 3 3 1 3 5 7 7 8 7 9 10 11 9 8 9 10 10 9 9 10 8 7 8 9 10 9 9 10 6
6 6 4 4 7 9 3 3 2 4 5 5 1 6 6 8 8 10 8 8 9 9 10 10 9 9 10 10 10 9 10 13 12 10 8 9 8 7 6 7 8 7 4 6
7 6 5 9 3 7 6 5 4 7 4 1 4 7 4 10 10 8 9 8 9 11 14 14 15 14 13 14 13 11 9 10 10 11 10 11 11 9 8 8 7 5 5 6
8 1 3 8 7 4 4 6 6 4 5 6 7 8 2 3 5 8 10 9 10 11 9 10 11 15 17 16 14 12 13 14 14 13 14 12 9 7 8 10 7 5 7 5
10 5 8 9 9 4 3 6 5 6 4 4 7 6 6 9 8 8 9 8 9 10 12 12 12 14 14 11 9 10 10 9 12 12 10 10 9 9 10 6 7 7 6 6
5 7 5 5 4 3 1 1 2 4 5 6 8 7 9 4 5 5 4 2 4 6 6 7 7 7 7 7 7 8 9 9 9 10 8 8 7 8 7 9 8 6 5 4
2 3 3 3 2 3 3 2 3 4 3 4 4 2 7 3 6 9 7 8 7 6 4 6 7 6 10 11 10 10 11 10 9 9 6 8 9 9 7 6 7 6 3 4
6 7 4 5 3 4 6 7 6 3 2 6 6 6 4 8 9 6 7 9 8 7 6 6 7 9 9 9 10 9 10 8 9 10 9 8 8 7 7 7 6 4 4 4
8 6 3 3 3 1 8 4 4 12 5 7 8 5 6 10 6 7 6 6 7 6 7 6 5 7 7 9 11 11 11 11 11 11 10 9 9 9 10 7 5 2 6 5
5 6 3 6 4 4 6 6 6 7 0 1 6 5 5 6 6 8 7 8 7 8 8 10 9 11 11 12 13 15 13 12 12 11 10 11 10 6 4 2 6 5 2 2
7 7 6 3 5 8 9 3 5 5 1 5 7 5 4 4 4 2 4 8 11 12 10 11 12 14 15 12 14 16 13 12 12 10 9 6 4 4 6 4 4 4 4 5
4 4 6 2 3 8 8 6 3 7 8 6 7 6 4 4 4 8 9 13 12 11 12 12 14 15 12 11 14 15 12 11 8 6 4 3 3 1 1 1 3 4 6 6
8 7 4 3 3 7 6 4 8 7 4 7 6 6 9 7 13 13 12 12 11 13 13 12 13 12 11 12 13 11 9 7 5 3 1 1 1 2 3 5 5 6 6 6
2 8 8 9 7 3 2 6 5 6 8 4 7 5 9 12 11 11 11 12 11 10 9 8 10 9 6 6 6 6 4 4 4 2 0 3 4 4 4 4 6 4 4 4
1 5 5 6 4 4 7 8 7 7 11 7 6 7 12 15 11 13 11 10 9 7 7 6 8 8 7 6 6 4 3 3 1 2 4 4 4 5 5 4 4 4 3 3
6 7 7 5 2 8 8 7 10 12 11 14 13 12 13 16 13 12 10 9 8 8 7 6 7 5 5 5 5 4 3 1 3 4 5 5 4 5 5 5 5 4 6 6
3 7 6 7 12 5 4 5 7 12 10 11 15 13 12 12 12 11 9 8 8 6 5 6 6 6 5 5 6 7 7 6 5 6 5 5 4 5 5 5 8 10 13 14
Wind_Direction
1 74 290 266 239 233 272 337 324 289 223 156 212 212 195 172 183 171 178 163 159 175 178 176 172 170 169 157 156 154 150 151 143 142 138 121 141 164 129 151 156 153 143 149
10 194 228 288 285 75 284 297 280 278 293 181 201 238 198 177 185 180 181 174 173 170 167 172 171 170 169 163 165 157 156 160 162 157 137 135 138 183 146 165 177 173 159 144
163 240 229 180 321 12 290 224 254 237 311 54 105 350 191 213 183 187 194 186 180 175 169 169 174 172 166 169 169 168 167 164 162 150 121 81 82 72 109 180 190 197 172 163
224 277 10 70 313 200 257 222 239 230 62 109 79 273 274 213 192 189 194 195 191 184 176 167 171 173 176 175 169 167 164 168 167 162 160 165 166 162 194 181 180 176 177 168
243 128 147 214 231 216 240 351 244 356 67 69 330 83 266 183 201 197 205 202 193 183 178 170 178 180 175 165 168 168 170 172 180 180 178 175 174 180 147 140 167 182 186 131
199 186 169 221 272 176 285 273 29 22 43 26 246 143 281 214 204 209 204 194 181 178 189 164 172 163 165 168 170 169 177 182 184 189 187 185 179 176 156 155 172 165 90 100
98 191 246 16 351 335 111 59 10 4 11 222 305 146 239 247 234 196 187 164 180 172 175 156 161 168 168 174 177 180 186 188 189 183 190 190 182 174 176 172 166 132 112 98
179 199 121 83 101 310 322 159 151 209 208 267 269 201 261 287 210 272 227 164 160 156 178 176 166 170 175 176 175 187 186 189 178 177 182 166 149 155 151 143 128 119 122 116
140 264 304 194 144 182 309 228 172 103 11 46 258 325 333 339 12 352 204 135 167 164 165 177 166 169 171 175 183 185 192 188 175 170 147 139 140 132 131 113 108 118 117 136
203 120 281 281 295 261 173 173 58 41 191 254 295 283 237 206 219 60 182 191 150 148 143 148 158 158 170 176 170 175 174 165 155 138 144 140 128 129 130 129 144 135 144 139
137 116 271 339 199 219 358 238 139 124 140 172 181 271 228 213 188 199 209 190 164 163 164 168 171 173 169 166 159 162 151 151 141 140 128 129 128 116 107 113 116 121 137 110
198 134 174 212 259 163 156 240 226 127 232 115 147 266 258 213 213 196 204 200 191 180 177 178 176 172 171 174 171 166 150 139 143 141 134 136 131 131 120 118 131 146 126 119
184 133 78 348 336 79 186 232 205 107 77 191 136 260 288 298 272 233 201 212 207 203 186 180 174 180 180 183 178 159 158 158 154 148 140 138 137 123 142 158 163 127 131 154
110 143 154 181 209 168 215 235 176 130 114 189 213 240 270 267 237 238 228 214 208 205 197 189 188 192 190 183 173 155 150 149 141 130 135 146 148 157 154 146 128 126 147 147
127 162 144 187 199 180 149 28 323 144 187 149 255 213 250 306 311 240 206 144 170 222 218 210 196 180 161 150 131 124 125 130 130 133 149 162 144 131 126 113 124 151 136 169
42 191 139 157 52 83 162 250 285 248 205 220 250 345 305 69 79 47 53 89 80 48 62 180 165 146 157 154 145 136 134 138 141 146 129 116 114 107 115 124 125 127 157 241
132 130 100 238 349 48 346 223 204 220 271 182 170 194 290 43 45 31 50 63 57 37 54 111 142 151 151 150 138 133 130 115 100 106 106 104 111 111 111 108 88 68 349 328
134 109 101 187 40 10 239 274 139 111 35 57 92 98 119 113 104 61 27 88 71 52 47 49 92 90 77 101 104 101 101 100 103 99 99 89 82 69 54 48 26 316 232 239
124 118 101 134 181 284 301 160 173 136 180 303 116 115 144 153 75 30 16 42 61 74 60 62 59 70 82 92 103 99 93 95 93 92 86 81 80 101 110 173 226 253 285 279
64 59 115 138 142 198 233 242 118 113 159 173 128 111 101 116 85 240 57 78 69 62 63 73 70 74 72 73 90 91 90 90 86 86 85 94 120 170 207 235 289 240 226 242
56 27 147 135 194 287 244 212 102 116 223 152 130 134 125 108 171 120 91 76 75 77 74 72 71 74 73 80 85 84 86 88 105 124 138 184 222 274 36 267 266 265 269 274
154 138 178 88 64 276 196 90 161 192 102 139 119 121 100 91 97 98 90 88 78 77 71 70 79 78 80 90 94 100 115 153 130 102 143 163 88 299 276 279 286 289 278 264
146 173 175 170 213 290 329 130 97 124 124 114 109 118 112 109 96 94 85 82 79 79 81 86 95 97 70 49 53 70 64 86 95 91 222 294 305 300 290 289 285 283 281 260
292 147 134 108 350 48 64 71 75 86 98 79 70 90 110 111 104 100 97 94 95 95 83 75 79 81 74 75 83 103 85 76 79 308 306 306 299 295 289 278 263 256 253 250
195 133 117 70 32 82 36 62 108 95 91 87 72 78 98 106 101 108 108 102 89 81 76 77 84 84 71 54 41 27 12 334 304 295 288 286 276 276 280 265 249 243 234 207
193 161 146 195 187 134 120 100 115 103 98 96 101 87 78 97 104 99 90 97 100 96 83 68 56 50 28 34 12 360 350 336 308 297 284 264 260 266 263 268 280 245 242 240